Waarnemingen

Advertentie
Mijn weer
Asturias/Aviles, Spanje (8011): temperatuur & dauwpunt: 14.01.2021 23:00:00 - 20.01.2021 23:00:00 (CET)Asturias/Aviles, Spanje (8011): windsnelheid: 14.01.2021 23:00:00 - 20.01.2021 23:00:00 (CET)Asturias/Aviles, Spanje (8011): windrichting: 14.01.2021 23:00:00 - 20.01.2021 23:00:00 (CET)Asturias/Aviles, Spanje (8011): luchtdruk: 14.01.2021 23:00:00 - 20.01.2021 23:00:00 (CET)Asturias/Aviles, Spanje (8011): zicht: 14.01.2021 23:00:00 - 20.01.2021 23:00:00 (CET)
Datum & Tijd tt [°C] td [°C] ff [km/u] ff [kn] dd ppp [hPa] vv [km]
20.01.2021 23:00:00 13,4 7,4 18 10 WZW 1001,5 -
20.01.2021 22:00:00 13,3 7,1 24 13 WZW 1000,8 30
20.01.2021 21:00:00 13,1 7,1 18 10 WZW 1000,2 -
20.01.2021 20:00:00 12,9 8,1 22 12 WZW 999,3 -
20.01.2021 19:00:00 12,9 8,4 18 10 WZW 998,2 30
20.01.2021 18:00:00 13,5 8,2 24 13 ZW 997,4 -
20.01.2021 17:00:00 14,2 7,3 26 14 WZW 996,8 -
20.01.2021 16:00:00 15,4 7,0 28 15 ZW 995,9 35
20.01.2021 15:00:00 15,5 5,9 44 24 ZW 995,4 -
20.01.2021 14:00:00 15,7 4,7 37 20 ZW 995,5 -
20.01.2021 13:00:00 15,3 4,9 9 5 ZZW 995,4 35
20.01.2021 12:00:00 15,6 4,4 5 3 Z 995,8 -
20.01.2021 11:00:00 14,6 3,8 4 2 ZZO 996,4 -
20.01.2021 10:00:00 12,7 2,6 13 7 Z 996,9 35
20.01.2021 09:00:00 9,7 2,2 2 1 ONO 997,3 -
20.01.2021 08:00:00 9,7 2,9 13 7 ZO 998,3 -
20.01.2021 07:00:00 10,9 2,4 8 4 Z 998,7 18
20.01.2021 06:00:00 - - - - - - -
20.01.2021 05:00:00 10,3 2,4 15 8 ZZO 1000,9 -
20.01.2021 04:00:00 10,4 2,2 13 7 ZO 1002,3 -
20.01.2021 03:00:00 11,7 1,0 15 8 ZZO 1003,3 -
20.01.2021 02:00:00 11,6 -0,2 9 5 Z 1004,1 -
20.01.2021 01:00:00 11,9 -0,6 13 7 Z 1005,2 -
20.01.2021 00:00:00 10,3 1,7 9 5 ZZW 1006,3 -
19.01.2021 23:00:00 11,2 0,7 13 7 ZZW 1007,1 -
19.01.2021 22:00:00 10,4 2,8 11 6 Z 1008,2 30
19.01.2021 21:00:00 10,3 2,1 9 5 ZZW 1009,3 -
19.01.2021 20:00:00 10,6 3,3 9 5 Z 1010,2 -
19.01.2021 19:00:00 11,7 2,1 8 4 ZW 1011,0 30
19.01.2021 18:00:00 12,0 2,2 15 8 ZZW 1011,6 -
19.01.2021 17:00:00 12,0 7,0 11 6 ZZO 1011,7 -
19.01.2021 16:00:00 12,7 7,6 8 4 ZZO 1012,8 30
19.01.2021 15:00:00 11,6 4,8 8 4 N 1014,0 -
19.01.2021 14:00:00 10,6 4,3 11 6 ZW 1015,2 -
19.01.2021 13:00:00 11,5 1,4 11 6 ZZW 1016,5 30
19.01.2021 12:00:00 10,2 1,4 16 9 ZZW 1017,5 -
19.01.2021 11:00:00 8,1 2,1 15 8 ZW 1017,9 -
19.01.2021 10:00:00 6,9 1,5 13 7 ZW 1018,3 30
19.01.2021 09:00:00 5,9 1,5 16 9 ZW 1018,7 -
19.01.2021 08:00:00 6,0 1,8 18 10 ZW 1019,2 -
19.01.2021 07:00:00 5,8 2,4 22 12 ZZW 1019,8 25
19.01.2021 06:00:00 6,3 2,9 18 10 ZZW 1020,1 -
19.01.2021 05:00:00 6,9 2,6 16 9 ZW 1020,9 -
19.01.2021 04:00:00 6,9 3,0 15 8 ZW 1021,4 -
19.01.2021 03:00:00 7,8 3,1 21 11 ZZW 1021,8 -
19.01.2021 02:00:00 8,3 3,7 21 11 ZZW 1022,5 -
19.01.2021 01:00:00 8,5 4,1 18 10 ZZW 1023,2 -
19.01.2021 00:00:00 8,7 5,2 15 8 ZW 1023,6 -
18.01.2021 23:00:00 8,8 6,9 15 8 ZW 1023,8 -
18.01.2021 22:00:00 9,7 7,8 16 9 ZW 1024,1 20
18.01.2021 21:00:00 9,9 8,9 15 8 ZZW 1024,4 -
18.01.2021 20:00:00 8,4 8,4 11 6 ZZO 1024,7 -
18.01.2021 19:00:00 9,1 9,1 16 9 ZO 1025,0 25
18.01.2021 18:00:00 10,6 10,3 15 8 OZO 1025,1 -
18.01.2021 17:00:00 11,6 10,5 8 4 O 1025,5 -
18.01.2021 16:00:00 11,7 10,0 11 6 O 1025,8 35
18.01.2021 15:00:00 12,3 10,6 8 4 O 1026,1 -
18.01.2021 14:00:00 11,9 10,3 9 5 OZO 1027,0 -
18.01.2021 13:00:00 10,6 9,4 4 2 ZW 1028,1 25
18.01.2021 12:00:00 9,7 8,3 9 5 ZW 1028,8 -
18.01.2021 11:00:00 8,8 8,5 8 4 ZW 1029,0 -
18.01.2021 10:00:00 8,3 8,3 8 4 ZZW 1029,0 18
18.01.2021 09:00:00 7,6 7,6 9 5 ZZW 1029,1 -
18.01.2021 08:00:00 7,9 7,9 0 0 N 1029,4 -
18.01.2021 07:00:00 8,1 8,1 9 5 ZZW 1029,1 8
18.01.2021 06:00:00 8,2 8,2 5 3 ZW 1029,1 -
18.01.2021 05:00:00 8,9 8,9 4 2 ZZW 1029,3 -
18.01.2021 04:00:00 9,4 9,4 0 0 N 1029,5 -
18.01.2021 03:00:00 9,7 9,7 4 2 ONO 1029,8 -
18.01.2021 02:00:00 10,0 10,0 8 4 WNW 1029,8 -
18.01.2021 01:00:00 10,1 10,1 8 4 WNW 1030,2 -
18.01.2021 00:00:00 10,2 10,2 11 6 WNW 1030,3 -
17.01.2021 23:00:00 10,4 10,4 13 7 W 1030,3 -
17.01.2021 22:00:00 10,7 10,7 13 7 WNW 1030,4 0,5
17.01.2021 21:00:00 10,8 10,8 11 6 WNW 1030,5 -
17.01.2021 20:00:00 11,0 11,0 11 6 W 1030,6 -
17.01.2021 19:00:00 11,0 9,9 5 3 W 1030,4 25
17.01.2021 18:00:00 11,6 10,8 9 5 WZW 1030,0 -
17.01.2021 17:00:00 11,9 10,8 11 6 WNW 1029,9 -
17.01.2021 16:00:00 11,5 8,4 9 5 WZW 1029,8 25
17.01.2021 15:00:00 11,4 8,1 11 6 ZW 1029,8 -
17.01.2021 14:00:00 10,5 5,7 11 6 ZW 1030,3 -
17.01.2021 13:00:00 10,1 4,7 15 8 ZW 1030,9 30
17.01.2021 12:00:00 9,0 4,0 13 7 ZW 1031,6 -
17.01.2021 11:00:00 8,5 3,2 18 10 ZZW 1031,4 -
17.01.2021 10:00:00 5,8 2,3 16 9 ZW 1031,0 30
17.01.2021 09:00:00 5,3 1,6 15 8 ZW 1030,8 -
17.01.2021 08:00:00 4,9 3,0 15 8 ZW 1030,7 -
17.01.2021 07:00:00 6,0 4,2 15 8 ZW 1030,4 30
17.01.2021 06:00:00 - - - - - - -
17.01.2021 05:00:00 5,2 3,0 18 10 WZW 1030,0 -
17.01.2021 04:00:00 4,9 3,6 13 7 ZW 1030,1 -
17.01.2021 03:00:00 3,9 1,9 13 7 ZW 1030,2 -
17.01.2021 02:00:00 4,2 1,6 8 4 ZZW 1030,3 -
17.01.2021 01:00:00 5,8 1,5 9 5 ZZW 1030,3 -
17.01.2021 00:00:00 6,2 0,9 8 4 WZW 1030,6 -
16.01.2021 23:00:00 7,0 3,1 15 8 ZZW 1030,6 -
16.01.2021 22:00:00 7,3 3,7 11 6 ZW 1030,6 10
16.01.2021 21:00:00 7,2 5,2 13 7 ZZW 1030,6 -
16.01.2021 20:00:00 7,0 5,9 8 4 ZW 1030,9 -
16.01.2021 19:00:00 8,3 6,1 5 3 W 1030,5 12
16.01.2021 18:00:00 9,4 6,2 9 5 WNW 1029,9 -
16.01.2021 17:00:00 10,5 4,9 11 6 NW 1029,4 -
16.01.2021 16:00:00 10,7 5,9 9 5 NW 1029,2 20
16.01.2021 15:00:00 11,1 5,4 9 5 WNW 1029,4 -
16.01.2021 14:00:00 11,2 6,0 8 4 W 1030,0 -
16.01.2021 13:00:00 8,9 1,8 9 5 ZW 1030,4 20
16.01.2021 12:00:00 7,5 2,1 9 5 ZZW 1031,1 -
16.01.2021 11:00:00 5,3 0,5 8 4 ZW 1031,1 -
16.01.2021 10:00:00 3,2 1,2 13 7 ZZW 1030,8 15
16.01.2021 09:00:00 2,6 0,1 9 5 ZW 1030,7 -
16.01.2021 08:00:00 2,3 0,7 18 10 ZZW 1030,3 -
16.01.2021 07:00:00 2,7 0,9 18 10 ZW 1030,2 12
16.01.2021 06:00:00 3,0 1,5 18 10 ZZW 1030,5 -
16.01.2021 05:00:00 3,0 1,7 15 8 ZW 1030,8 -
16.01.2021 04:00:00 3,5 2,3 13 7 ZW 1031,2 -
16.01.2021 03:00:00 3,6 3,0 11 6 ZW 1031,0 -
16.01.2021 02:00:00 4,1 3,7 13 7 ZW 1031,0 -
16.01.2021 01:00:00 4,5 4,4 16 9 ZZW 1030,9 -
16.01.2021 00:00:00 5,1 5,1 15 8 ZZW 1031,1 -
15.01.2021 23:00:00 6,0 6,0 13 7 ZZW 1031,3 -
15.01.2021 22:00:00 6,2 6,2 13 7 ZZW 1031,2 15
15.01.2021 21:00:00 5,9 5,9 9 5 ZZO 1031,4 -
15.01.2021 20:00:00 5,7 5,7 13 7 ZO 1031,6 -
15.01.2021 19:00:00 7,3 6,4 11 6 OZO 1031,4 20
15.01.2021 18:00:00 9,4 8,1 9 5 O 1031,2 -
15.01.2021 17:00:00 10,4 8,2 5 3 ONO 1030,7 -
15.01.2021 16:00:00 10,8 8,4 5 3 NO 1030,8 20
15.01.2021 15:00:00 10,5 7,9 4 2 N 1030,8 -
15.01.2021 14:00:00 11,3 6,5 4 2 O 1031,2 -
15.01.2021 13:00:00 10,7 6,3 9 5 ZZW 1032,7 20
15.01.2021 12:00:00 8,9 6,5 11 6 ZZW 1033,1 -
15.01.2021 11:00:00 6,6 6,4 15 8 ZW 1032,8 -
15.01.2021 10:00:00 5,6 5,6 15 8 ZW 1032,7 15
15.01.2021 09:00:00 5,1 5,1 9 5 ZW 1032,3 -
15.01.2021 08:00:00 5,0 5,0 16 9 ZW 1031,8 -
15.01.2021 07:00:00 5,2 5,2 13 7 ZW 1031,9 8
15.01.2021 06:00:00 5,7 5,7 11 6 ZW 1031,6 -
15.01.2021 05:00:00 5,9 5,9 13 7 ZW 1031,6 -
15.01.2021 04:00:00 6,4 6,4 13 7 ZW 1032,0 -
15.01.2021 03:00:00 7,1 7,1 13 7 ZZW 1031,8 -
15.01.2021 02:00:00 7,9 7,9 9 5 ZW 1032,0 -
15.01.2021 01:00:00 7,8 7,8 2 1 ZW 1032,0 -
15.01.2021 00:00:00 7,9 7,9 8 4 ZW 1031,7 -
14.01.2021 23:00:00 8,2 8,2 9 5 ZW 1031,6 -

tt = temperatuur
td = dauwpunt
ff = windsnelheid
dd = windrichting
ppp = luchtdruk
vv = zicht

Weerstations in de omgeving